一网星座-0214星 (ONEWEB-0214 )

导读

ONEWEB-0214是英国一网公司(OneWeb)的低轨通信卫星,于2021年5月28日发射入轨,属于OneWeb全球低轨卫星互联网星座的组成部分。该星座旨在为全球偏远地区及基础设施薄弱区域提供高速宽带接入服务,单星具备约7.5Gbps通信能力,可支持用户下载速率达50Mbps,助力实现全球泛在连接,推动空天地一体化网络建设。

Basic Information
目录编号:
48788
目录名称:
ONEWEB-0214
国际标识:
2021-045X
轨道中心:
EARTH
卫星名称:
一网星座-0214星
卫星全名:
一网星座-0214星 (ONEWEB-0214 )
卫星状态:
在轨 (已飞行1932 天)
发射日期:
2021-05-28 UTC
国别 :
英国 (GB)
星等 :
--
This satellite is enrolled in the Space Conjunction Data Service (SCDS) and the current flight risk assessment level is: No High Risk
Orbit Information
数据来源 国际轨道数据 AOE轨道数据
星历时间 2026-09-11T06:52:57+0800
15小时前
查看轨道信息
2026-09-06T07:00:00+0800
5天前
查看轨道信息
半长轴 7579.913km 7579.902km
偏心率 0.0002309 0.0002381
轨道倾角 87.898° 87.898°
近地点辐角 91.335° 87.057°
升交点赤经 242.087° 243.083°
平近点角 268.804° 29.914°
近地点 1200.025km 1199.96km
远地点 1203.527km 1203.57km
周期 109.460分钟 109.460分钟
每日圈数 13.155472 13.155502
Detailed Information
平衡模式:
三轴稳定
覆盖范围:
全球
运营商:
一网卫星公司
运营商所在国:
英国
制造商(研发单位):
一网卫星公司
制造商所在国:
英国
使用方式:
暂无
Satellite Introduction
OneWeb卫星网络由648颗重约125公斤的微型卫星组成,运行在1200公里的轨道上。 每颗卫星都能够提供至少每秒8千兆位的吞吐量,以使用其高吞吐量的Ku频段有效载荷为家庭和移动平台提供互联网接入。该卫星仍在工作。
2D Orbit Map
3D Orbit Map
Orbit Altitude Analysis Chart
Orbit Inclination Analysis Chart
Orbit Comprehensive Analysis Chart
View Comprehensive Chart
Miss Distance Evolution Trend with All Objects
Collision Probability Evolution Trend with All Objects